Tracking 23582 objects as of 1-Aug-2021
HD Live streaming from Space Station
objects crossing your sky now

LEASAT 4 PKM

Track LEASAT 4 PKM now!
10-day predictions


NORAD ID: 16001
Int'l Code: 1985-076F
Perigee: 373.4 km
Apogee: 14,169.6 km
Inclination: 27.4 °
Period: 264.3 minutes
Semi major axis: 13642 km
RCS: 3.8918 m2 (large)
Launch date: August 27, 1985
Source: United States (US)
Launch site: AIR FORCE EASTERN TEST RANGE (AFETR)

Note: This is a ROCKET BODY
aabbcc
Your satellite tracking list
Your tracking list is empty




NASA's NSSDC Master Catalog

Two Line Element Set (TLE):
1 16001U 85076F   21212.44157708  .00000913  00000-0  38367-3 0  9991
2 16001  27.4174 329.5346 5056319 198.8933 132.2182  5.44831984694416
Source of the keplerian elements: AFSPC